Weather Roundup
Issued by NWS

Home | Current Version | Previous Version | Text Only | Print | Product List | Glossary On
Versions: 1 2 3 4 5 6 7 8 9 10 11 12 13 14 15 16 17 18 19 20 21 22 23 24 25 26 27 28 29 30 31 32 33 34 35 36 37 38 39 40 41 42 43 44 45 46 47 48 49 50
000
NZUS93 KARX 291910
HRRWXR

CURRENT HOURLY OBSERVATIONS ACROSS
MUCH OF THE UPPER MISSISSIPPI VALLEY
NATIONAL WEATHER SERVICE LA CROSSE WI
200 PM CDT SUN MAR 29 2015


...SOUTHEAST MINNESOTA...


CITY           SKY/WX    TMP DP  RH WIND       PRES   REMARKS
ROCHESTER      CLOUDY    40  34  79 NW32G40   29.70R WCI  28
ROCHESTER/MAYO CLOUDY    41  36  82 W24G39    29.69R
WINONA         CLOUDY    43  36  75 W20G33    29.66R
AUSTIN         CLOUDY    45  37  76 NW25G33   29.76R
ALBERT LEA     CLOUDY    48  37  66 NW21G35   29.77R
DODGE CENTER   CLOUDY    43  37  81 NW21G33   29.73R
PRESTON        CLOUDY    40  34  81 W25G38    29.72R WCI  29
OWATONNA       CLOUDY    45  37  76 NW25G37   29.76R
FARIBAULT      CLOUDY    45  37  76 NW21G35   29.75R
$$

...ELSEWHERE IN MINNESOTA...


CITY           SKY/WX    TMP DP  RH WIND       PRES   REMARKS
MINNEAPOLIS    PTSUNNY   47  39  74 NW29G40   29.71R
INTNL FALLS    CLOUDY    39  31  72 NW22G33   29.63R WCI  29
DULUTH         LGT RAIN  39  34  82 NW24G37   29.54R WCI  28
RED WING       CLOUDY    41  37  87 NW16G24   29.68R
REDWOOD FALLS  SUNNY     54  34  46 NW26G41   29.85R
MANKATO        NOT AVBL
WORTHINGTON    NOT AVBL
FAIRMONT       SUNNY    N/A N/A N/A NW31G43   29.82R
$$

...SOUTHWEST WISCONSIN...


CITY           SKY/WX    TMP DP  RH WIND       PRES   REMARKS
LA CROSSE      CLOUDY    47  37  68 W30G43    29.63R
PRAIRIE DU CHI PTSUNNY   46  38  72 S7        29.70F
BOSCOBEL       MOSUNNY   48  38  68 SW17G24   29.69F
LONE ROCK      CLOUDY    39  34  82 SW9       29.71F WCI  33
PLATTEVILLE    CLOUDY    41  39  90 S20G29    29.74F
FORT MC COY    DRIZZLE   42  36  79 SW6       29.62F
CAMP DOUGLAS   CLOUDY    41  41 100 SW13G23   29.60F
VIROQUA        CLOUDY    40  39  95 S17       29.62F WCI  32
WIS DELLS      CLOUDY    36  33  87 SW20G26   29.67F WCI  25
$$

...ELSEWHERE IN WISCONSIN...


CITY           SKY/WX    TMP DP  RH WIND       PRES   REMARKS
MILWAUKEE      CLOUDY    34  29  82 SW22G37   29.77F WCI  22
MADISON        CLOUDY    35  30  82 S14G25    29.73F WCI  26
GREEN BAY      NOT AVBL
EAU CLAIRE     LGT RAIN  43  39  86 NW23G32   29.59R
BLACK RVR FLS  RAIN      40  37  87 SW8       29.60F
MEDFORD        RAIN      33  32  97 SW8       29.52F VSB 1   WCI  26
WAUSAU         LGT RAIN  34  32  92 SW15G25   29.52F FOG     WCI  24
WIS RAPIDS     CLOUDY    37  32  82 SW15G23   29.60F WCI  28
MARSHFIELD     LGT RAIN  38  35  89 SW17G25   29.55F FOG     WCI  28
RICE LAKE      LGT SNOW  34  32  91 W14G20    29.61R WCI  25
$$

...NORTHEAST IOWA...


CITY           SKY/WX    TMP DP  RH WIND       PRES   REMARKS
DECORAH        CLOUDY    48  41  76 W16G23    29.69R
MASON CITY     CLOUDY    49  38  65 NW31G39   29.81R
CHARLES CITY   CLOUDY    52  45  76 NW26G38   29.76R
OELWEIN        CLOUDY    55  43  62 W28G35    29.74R
$$

...ELSEWHERE IN IOWA...


CITY           SKY/WX    TMP DP  RH WIND       PRES   REMARKS
DES MOINES     PTSUNNY   61  40  45 NW36G47   29.87R
IOWA CITY      MOSUNNY   59  42  53 W22G30    29.82F
FORT DODGE     PTSUNNY   55  37  50 NW16G32   29.89R
$$

...NORTHERN ILLINOIS...


CITY           SKY/WX    TMP DP  RH WIND       PRES   REMARKS
CHICAGO-OHARE  DRIZZLE   35  28  75 SW21G35   29.87S WCI  24
CHICAGO-MIDWAY CLOUDY    37  29  72 S20G32    29.89F WCI  27
MOLINE         MOSUNNY   49  36  61 SW21G29   29.84F
ROCKFORD       CLOUDY    37  30  75 SW22      29.84F WCI  26
PEORIA         CLOUDY    45  31  58 SW17      29.91F
$$

NOTE: "FAIR" INDICATES FEW OR NO CLOUDS BELOW 12,000 FEET WITH NO
SIGNIFICANT WEATHER AND/OR OBSTRUCTIONS TO VISIBILITY. WIND
SPEEDS ARE IN MILES-PER-HOUR.



USA.gov is the U.S. government's official web portal to all federal, state and local government web resources and services.